INTELSAT 26 (IS-26) (24732 NORAD) Tracking and Keplerian Element Data

This shows tracking and keplerian element data for the satellite.

Feedback or suggestion? Click here.




ElementValue
Catalog24732
NameINTELSAT 26 (IS-26)
Epoch Orbit7980
Epoch Day349.75716881
Epoch Year2018
RAAN46.334
Inclination8.2659
Eccentricity0.0004264
Argument of Perigee200.984
Mean Anonmoly171.7981
Mean Motion1.00272052
Decay Rate2.9E-07
L11 24732U 97007A 18349.75716881 .00000029 00000-0 00000+0 0 9999
L22 24732 8.2659 46.3340 0004264 200.9840 171.7981 1.00272052 79806

Live tracking and technical data element details for INTELSAT 26 (IS-26) (NORAD 24732). INTELSAT 26 (IS-26) can be tracked NOW for your location showing map with azimuth and elevation plus other details from your city location.

Track the satellite on the map from your city or location and see movement details for azimuth, elevation, latitude, longitude, range, height, and movement on the map or in text.







IsCatalogInMostPopularTable: catalog: 24732, numindb: 48
Update: records affected: 1



GetName: 24732 INTELSAT 26 (IS-26)

Hit Count: updated at: Sun, 16 Dec 2018 10:18:28 GMT